Wind_Speed
32 33 33 32 32 32 32 32 32 32 31 31 31 32 32 32 32 33 33 33 33 33 33 33 33 33 33 33 33 33 33 34 34 35 35 36 36 37 37 38 39 40 41
33 33 34 34 34 34 34 33 33 33 32 32 32 32 32 33 34 34 34 34 35 35 35 35 35 35 35 35 35 35 35 36 36 36 37 37 38 38 39 40 41 42 43
36 34 35 36 36 36 35 35 35 34 34 34 33 34 34 34 34 35 36 36 36 36 36 36 36 36 36 36 36 37 37 37 37 38 38 39 39 40 41 41 42 43 44
38 37 36 37 38 38 38 37 37 36 36 36 35 35 36 36 35 36 36 36 36 36 36 36 36 36 37 37 38 38 38 38 39 39 40 40 41 41 41 42 43 44 45
39 40 39 39 39 40 39 38 38 37 37 37 36 37 37 36 37 37 37 37 37 37 37 37 37 37 38 39 39 39 39 40 40 41 41 41 42 42 42 43 44 45 45
42 42 42 42 41 41 40 40 40 39 38 38 38 39 38 38 38 38 37 37 38 38 39 38 39 39 40 41 40 40 41 41 41 42 42 42 43 43 44 44 44 46 46
43 43 42 43 43 41 41 40 40 39 40 39 39 40 39 39 38 38 38 38 38 39 40 40 39 40 41 41 41 41 41 41 41 42 42 43 44 45 45 45 46 46 46
44 44 43 42 41 40 41 41 41 41 42 41 40 40 39 38 38 38 38 38 39 40 40 40 40 41 41 42 42 41 41 41 42 43 44 44 45 45 45 46 46 45 46
44 44 44 43 43 42 41 41 41 41 41 41 40 41 40 38 38 38 39 39 39 40 40 40 41 42 42 42 42 41 41 41 42 42 43 44 45 45 46 47 47 46 47
45 45 45 45 44 43 42 42 41 41 41 41 41 41 41 40 40 39 39 40 40 39 40 40 41 42 42 42 42 42 41 41 42 42 43 43 44 45 47 47 47 47 47
46 46 46 46 45 44 44 44 42 42 42 41 40 39 40 41 41 41 40 39 40 39 39 40 41 42 43 42 42 42 41 41 41 42 43 44 45 46 48 48 48 48 48
46 48 48 47 46 44 44 44 43 42 41 41 39 39 41 41 41 41 40 40 40 39 39 40 41 43 44 43 42 42 41 41 41 42 44 45 45 47 48 49 49 49 48
44 45 46 45 45 44 44 45 44 44 43 41 40 40 41 41 41 41 41 40 40 40 40 41 42 43 43 44 43 42 41 42 43 42 44 45 46 47 49 50 49 49 47
43 43 43 44 44 43 43 44 44 43 42 41 41 41 41 40 40 40 40 40 40 40 41 42 42 43 43 43 43 43 42 43 44 44 45 47 47 47 48 48 48 47 47
42 42 42 42 41 41 42 43 43 42 41 41 40 40 40 39 40 40 41 42 42 42 41 40 41 41 42 42 42 43 43 43 44 44 46 46 47 47 47 46 46 46 47
39 40 39 40 40 41 42 42 43 42 41 40 40 40 39 40 40 41 42 42 42 42 41 40 40 41 41 41 42 42 43 43 42 43 45 46 47 47 47 46 46 46 46
39 40 39 39 39 39 40 42 42 41 40 40 40 40 40 40 41 42 42 42 42 42 41 40 40 40 40 41 41 42 43 43 42 42 44 45 45 45 45 45 45 44 44
40 39 37 38 38 38 39 40 40 40 40 40 41 41 41 40 41 42 42 42 42 41 40 39 40 39 39 40 40 41 42 43 43 42 42 42 43 44 44 44 43 42 43
40 40 37 36 36 36 37 39 39 39 40 40 41 41 41 42 42 42 42 41 39 38 38 38 38 39 39 40 40 40 41 42 41 40 40 41 41 42 42 41 41 41 41
38 37 37 35 35 35 36 36 37 37 38 39 39 39 40 40 40 40 40 39 37 38 39 39 38 39 39 39 40 39 39 38 38 39 40 40 40 40 40 39 39 39 39
36 36 37 36 36 35 35 35 36 37 36 36 37 38 38 38 37 37 38 38 37 37 38 38 38 38 38 39 38 37 38 37 37 38 39 39 38 38 38 37 36 36 35
34 33 34 35 35 34 35 35 36 37 36 36 36 37 38 37 37 37 36 36 36 36 36 36 36 37 37 37 37 36 36 36 36 36 36 36 36 36 35 34 34 34 33
32 32 33 33 33 33 35 36 35 35 35 35 36 36 37 37 36 35 36 36 36 36 36 36 36 36 36 36 36 36 35 36 35 35 34 34 33 33 33 33 32 32 32
32 31 32 32 32 33 33 34 34 35 34 34 35 35 35 35 35 36 36 35 35 36 36 35 34 34 34 34 34 34 33 34 34 33 34 33 31 30 31 31 30 30 30
32 31 31 32 32 32 32 33 34 33 32 33 33 33 34 35 35 35 35 34 33 34 34 32 32 31 31 32 32 32 32 32 31 31 32 31 29 28 29 29 29 29 29
31 31 31 31 31 31 31 32 32 32 32 32 33 33 34 34 34 33 33 33 32 32 31 29 29 30 30 31 31 31 31 30 30 30 30 29 28 27 26 26 27 28 28
Wind_Direction
259 259 259 260 261 263 264 265 266 267 269 270 271 272 272 273 273 275 277 278 279 280 281 283 284 286 288 288 289 289 291 293 293 294 295 296 296 296 296 296 297 296 297
258 258 258 259 260 261 263 265 266 267 269 270 272 272 274 274 274 275 276 277 278 279 280 282 283 285 287 288 288 289 290 291 292 293 293 294 295 296 296 296 297 297 297
256 258 258 259 260 261 262 264 266 266 269 270 272 273 275 276 276 276 276 277 278 279 279 280 282 283 285 287 288 289 289 290 290 291 292 294 295 296 297 297 297 297 297
255 256 259 259 261 262 263 264 265 266 269 270 272 274 275 276 276 277 277 277 278 278 279 279 281 282 284 285 287 288 288 289 290 290 292 294 296 297 297 297 298 297 297
256 256 257 260 261 262 263 264 265 266 268 270 273 274 275 276 276 277 278 277 278 278 278 278 279 281 282 283 285 286 286 288 289 291 292 294 296 297 298 298 298 298 298
257 256 257 258 260 262 263 264 265 266 268 271 273 274 276 276 277 278 278 278 278 278 277 278 279 281 281 282 283 284 286 288 289 291 292 294 295 296 297 298 299 299 299
256 257 257 258 260 262 263 264 266 267 268 272 273 274 275 277 278 278 278 278 279 278 278 278 280 281 281 282 283 284 285 288 289 290 291 293 294 296 297 298 298 298 299
257 257 257 257 258 261 263 264 265 267 269 271 272 273 275 276 277 278 278 279 280 279 279 280 280 280 281 282 283 284 286 288 290 292 292 293 295 295 296 297 298 298 298
255 255 256 256 256 259 261 263 266 267 268 270 272 273 274 275 277 278 279 280 280 281 280 280 280 281 282 283 284 284 286 288 291 292 293 293 294 294 295 296 296 297 298
254 255 255 256 257 257 260 262 265 266 268 271 272 272 273 275 276 276 278 280 281 281 281 281 281 280 281 282 282 283 285 288 291 292 292 293 294 295 295 295 296 297 298
255 255 255 257 255 256 259 262 264 266 268 271 271 271 272 275 276 277 279 280 280 280 280 281 282 281 281 281 282 283 284 286 289 291 292 293 294 294 295 295 296 296 297
254 254 255 257 255 255 257 260 261 265 267 268 269 270 272 275 276 278 280 280 279 278 279 282 283 283 282 281 282 282 283 285 287 290 291 292 294 294 295 296 296 296 296
253 254 254 256 256 255 257 258 260 263 265 268 269 270 272 274 275 277 279 280 280 279 280 282 283 284 282 280 280 281 282 284 286 289 290 291 293 294 295 296 296 297 297
251 253 255 256 256 256 257 259 260 263 267 269 270 270 272 273 274 277 279 281 282 280 281 283 283 283 282 281 280 281 281 283 285 287 289 290 292 294 296 297 298 298 298
253 254 255 258 257 257 257 258 261 264 268 270 270 272 274 275 276 278 280 282 283 283 283 284 283 284 284 282 282 282 283 284 284 286 289 291 292 294 296 297 298 298 298
253 254 256 259 258 257 257 259 263 265 267 270 271 271 274 276 277 280 282 283 283 284 285 284 284 285 285 285 283 283 283 284 286 287 288 292 293 295 296 297 298 298 298
253 254 258 259 258 259 260 262 264 266 268 269 270 271 273 275 277 280 282 283 283 284 284 283 285 284 284 285 283 284 284 284 285 287 289 292 293 295 297 297 298 298 298
251 255 260 259 259 261 262 262 264 266 267 268 270 272 274 276 278 280 281 282 283 282 283 284 285 284 284 284 284 284 285 286 286 288 291 292 294 295 297 298 298 298 299
251 254 258 258 259 261 261 262 263 266 267 269 271 273 274 275 279 281 282 283 282 281 283 284 283 284 283 283 284 285 286 287 288 288 291 293 294 296 298 299 299 299 300
253 257 257 259 260 262 263 263 264 265 267 269 271 273 275 278 280 281 282 283 282 281 282 283 283 282 283 283 285 287 288 287 288 290 292 294 295 296 299 301 301 300 301
257 260 259 259 261 262 263 263 265 266 268 269 271 274 277 279 281 282 283 283 282 282 282 283 283 284 285 284 285 286 287 288 290 292 294 295 297 299 301 301 301 301 302
260 261 261 259 260 260 261 263 266 267 270 271 273 275 277 278 280 282 283 284 283 282 283 285 285 285 285 284 284 287 289 288 289 292 294 296 298 299 300 301 301 302 302
260 261 260 260 261 263 264 265 268 269 272 273 275 278 278 279 281 283 283 283 283 282 283 284 285 284 285 285 285 288 290 292 292 293 294 297 299 300 301 303 303 303 304
261 262 260 260 264 265 265 266 268 272 273 275 277 278 278 280 282 283 282 283 283 282 282 283 283 285 285 285 285 287 290 294 296 296 297 298 300 301 303 303 304 305 305
261 262 260 260 262 263 266 268 271 272 273 275 278 278 278 280 282 282 282 283 283 282 283 285 285 286 287 287 287 288 291 296 297 299 300 300 300 302 304 305 304 305 305
261 262 261 261 263 265 267 268 270 271 273 274 276 276 277 278 279 281 282 282 282 282 284 285 286 286 288 289 289 289 291 294 298 299 300 301 301 302 303 305 305 305 306
Height
5780 5781 5783 5785 5786 5787 5789 5790 5790 5792 5792 5793 5793 5794 5794 5795 5796 5796 5797 5797 5797 5797 5796 5796 5796 5795 5794 5793 5791 5790 5788 5786 5784 5782 5780 5777 5775 5772 5769 5766 5763 5760 5756
5772 5773 5775 5777 5778 5780 5781 5782 5783 5784 5785 5785 5786 5786 5787 5787 5788 5788 5788 5789 5789 5789 5789 5788 5788 5787 5786 5785 5784 5782 5780 5778 5777 5774 5772 5770 5767 5764 5761 5758 5754 5751 5747
5764 5765 5767 5769 5771 5772 5773 5774 5775 5776 5777 5778 5778 5779 5779 5780 5780 5780 5780 5780 5780 5780 5780 5780 5779 5778 5777 5776 5775 5774 5772 5770 5768 5766 5764 5761 5758 5755 5752 5748 5745 5741 5737
5756 5758 5759 5761 5763 5764 5765 5766 5767 5769 5770 5770 5771 5771 5771 5772 5772 5771 5771 5772 5772 5772 5771 5771 5771 5770 5769 5768 5767 5765 5764 5762 5760 5758 5755 5752 5749 5746 5743 5739 5735 5731 5727
5747 5749 5751 5752 5754 5755 5757 5758 5759 5761 5761 5762 5763 5763 5763 5763 5763 5763 5763 5763 5763 5763 5762 5762 5762 5761 5760 5759 5758 5756 5755 5753 5751 5748 5746 5743 5740 5737 5733 5729 5725 5721 5717
5738 5740 5742 5743 5744 5746 5747 5749 5750 5752 5753 5754 5754 5754 5755 5755 5755 5754 5754 5754 5754 5753 5753 5753 5752 5752 5750 5750 5748 5747 5746 5744 5742 5739 5736 5734 5730 5727 5723 5720 5715 5711 5706
5728 5730 5732 5734 5735 5736 5738 5740 5741 5742 5743 5744 5745 5745 5745 5745 5746 5745 5745 5745 5745 5744 5744 5743 5743 5742 5741 5740 5739 5737 5736 5734 5732 5729 5726 5724 5720 5717 5713 5709 5705 5700 5696
5718 5721 5722 5724 5726 5727 5728 5730 5731 5733 5734 5734 5735 5736 5736 5737 5736 5736 5736 5736 5735 5735 5734 5734 5733 5733 5732 5730 5729 5728 5726 5724 5722 5719 5716 5713 5710 5706 5702 5698 5694 5689 5685
5708 5710 5713 5714 5716 5718 5719 5721 5722 5723 5724 5725 5725 5726 5727 5728 5728 5728 5727 5726 5726 5725 5725 5724 5723 5723 5722 5720 5719 5717 5716 5714 5712 5709 5706 5703 5699 5695 5691 5687 5683 5678 5674
5697 5700 5703 5705 5707 5708 5710 5711 5713 5714 5715 5715 5715 5716 5717 5718 5718 5719 5719 5717 5716 5716 5715 5714 5713 5712 5711 5710 5709 5707 5705 5703 5701 5698 5695 5692 5688 5685 5680 5676 5671 5667 5662
5687 5690 5693 5695 5697 5699 5700 5702 5704 5705 5705 5706 5706 5707 5707 5707 5708 5708 5709 5708 5707 5706 5705 5704 5703 5702 5700 5699 5698 5696 5695 5693 5690 5688 5684 5681 5677 5674 5669 5665 5660 5655 5651
5677 5680 5683 5685 5686 5689 5691 5693 5694 5695 5695 5696 5697 5697 5698 5698 5698 5698 5698 5698 5698 5697 5695 5694 5693 5691 5690 5688 5687 5686 5684 5682 5679 5677 5674 5670 5666 5662 5658 5653 5648 5644 5639
5668 5669 5672 5674 5676 5679 5681 5683 5684 5685 5686 5687 5687 5687 5688 5688 5688 5688 5688 5688 5688 5687 5686 5684 5682 5681 5679 5677 5676 5674 5673 5671 5668 5666 5662 5659 5655 5651 5647 5642 5637 5632 5628
5657 5659 5662 5664 5667 5669 5671 5673 5675 5676 5676 5677 5677 5678 5678 5678 5678 5678 5678 5677 5677 5677 5676 5675 5673 5670 5668 5666 5665 5663 5661 5659 5657 5655 5651 5648 5644 5640 5635 5631 5626 5622 5617
5648 5650 5653 5655 5657 5660 5662 5664 5665 5666 5666 5667 5667 5668 5668 5669 5668 5668 5667 5666 5666 5666 5666 5664 5662 5660 5657 5656 5654 5652 5650 5648 5646 5643 5640 5637 5633 5629 5624 5620 5616 5611 5606
5639 5641 5644 5646 5648 5650 5652 5654 5655 5656 5656 5657 5657 5658 5659 5659 5658 5658 5657 5656 5654 5653 5654 5653 5651 5649 5647 5645 5643 5641 5639 5637 5635 5632 5629 5625 5622 5617 5613 5609 5604 5600 5595
5630 5633 5636 5637 5639 5641 5642 5644 5645 5646 5647 5647 5648 5648 5649 5649 5649 5647 5646 5645 5644 5643 5642 5642 5640 5638 5636 5634 5632 5630 5628 5626 5623 5621 5618 5614 5610 5607 5603 5598 5594 5589 5584
5621 5624 5626 5628 5630 5632 5633 5635 5636 5637 5638 5638 5639 5639 5639 5639 5638 5637 5636 5635 5634 5633 5632 5632 5630 5628 5626 5624 5622 5620 5617 5615 5613 5610 5607 5603 5600 5596 5592 5588 5583 5578 5574
5612 5615 5617 5619 5621 5622 5624 5625 5627 5628 5628 5629 5629 5629 5629 5629 5628 5627 5626 5625 5624 5623 5621 5621 5620 5618 5616 5614 5612 5609 5606 5604 5602 5599 5596 5593 5590 5586 5582 5577 5573 5568 5564
5603 5606 5608 5610 5612 5613 5614 5616 5618 5618 5619 5619 5619 5619 5619 5619 5618 5617 5616 5615 5614 5613 5612 5611 5610 5608 5606 5604 5601 5599 5597 5594 5591 5589 5586 5583 5580 5576 5572 5568 5564 5559 5554
5594 5596 5598 5601 5603 5604 5605 5607 5608 5609 5609 5610 5610 5610 5610 5609 5609 5608 5607 5606 5604 5604 5602 5601 5600 5598 5596 5594 5592 5589 5587 5585 5582 5579 5577 5574 5570 5567 5563 5559 5555 5550 5546
5585 5587 5589 5591 5593 5595 5596 5597 5598 5600 5600 5601 5601 5601 5600 5600 5599 5599 5597 5596 5595 5594 5593 5591 5590 5588 5586 5584 5582 5580 5578 5577 5575 5572 5568 5565 5561 5557 5554 5550 5546 5542 5538
5576 5578 5580 5582 5584 5586 5587 5588 5589 5590 5591 5592 5592 5592 5591 5590 5590 5589 5588 5587 5585 5584 5583 5581 5580 5578 5576 5574 5573 5571 5569 5567 5565 5562 5559 5556 5552 5549 5545 5541 5538 5534 5530
5568 5570 5572 5574 5576 5577 5578 5579 5580 5581 5582 5582 5582 5582 5582 5581 5581 5580 5579 5577 5576 5574 5573 5571 5570 5568 5566 5565 5563 5562 5560 5558 5556 5553 5551 5549 5545 5541 5537 5533 5530 5526 5523
5560 5562 5563 5565 5567 5568 5569 5570 5571 5572 5573 5573 5573 5572 5572 5572 5571 5570 5569 5568 5567 5565 5563 5562 5560 5559 5557 5556 5555 5553 5552 5550 5548 5545 5543 5540 5538 5535 5531 5527 5522 5519 5515
5552 5554 5555 5556 5558 5560 5560 5562 5562 5564 5564 5564 5564 5563 5562 5562 5561 5560 5559 5558 5557 5556 5555 5553 5552 5550 5549 5547 5546 5545 5543 5542 5540 5538 5535 5533 5530 5527 5525 5521 5517 5513 5509